This is the latest recevied weather packets stored in our database for station/object KI6SYE. If no packets are shown the sender has not sent any weather packets the latest 10 day(s).
| Time | Temp. | Humidity | Pressure | Rain* | Wind** | Luminosity | Snow |
|---|---|---|---|---|---|---|---|
| 1777760276 | 17.78° C | 77% | 1012.2 hPa | 0 mm | - | 377 W/m² | - |
| 1777759972 | 17.78° C | 78% | 1012.2 hPa | 0 mm | - | 401 W/m² | - |
| 1777759669 | 17.22° C | 79% | 1012.5 hPa | 0 mm | - | 371 W/m² | - |
| 1777759365 | 17.78° C | 78% | 1012.5 hPa | 0 mm | - | 402 W/m² | - |
| 1777759062 | 17.78° C | 78% | 1012.8 hPa | 0 mm | - | 381 W/m² | - |
| 1777758759 | 17.78° C | 77% | 1012.8 hPa | 0 mm | - | 403 W/m² | - |
| 1777758457 | 17.78° C | 78% | 1012.8 hPa | 0 mm | - | 788 W/m² | - |
| 1777758153 | 17.78° C | 77% | 1013 hPa | 0 mm | - | 496 W/m² | - |
| 1777757851 | 17.78° C | 76% | 1013.1 hPa | 0 mm | - | 464 W/m² | - |
| 1777757548 | 17.78° C | 77% | 1013 hPa | 0 mm | - | 428 W/m² | - |
| 1777757246 | 17.78° C | 78% | 1013.1 hPa | 0 mm | - | 427 W/m² | - |
| 1777756939 | 17.78° C | 77% | 1013.2 hPa | 0 mm | - | 455 W/m² | - |
| 1777756634 | 17.78° C | 78% | 1013.2 hPa | 0 mm | - | 500 W/m² | - |
| 1777756331 | 18.33° C | 77% | 1013.2 hPa | 0 mm | - | 510 W/m² | - |
| 1777756029 | 17.78° C | 79% | 1013.2 hPa | 0 mm | - | 506 W/m² | - |
| 1777755726 | 17.78° C | 78% | 1013.4 hPa | 0 mm | - | 556 W/m² | - |
| 1777755422 | 17.78° C | 78% | 1013.2 hPa | 0 mm | - | 527 W/m² | - |
| 1777755118 | 17.78° C | 79% | 1013.5 hPa | 0 mm | - | 552 W/m² | - |
| 1777754815 | 17.78° C | 78% | 1013.7 hPa | 0 mm | - | 681 W/m² | - |
| 1777754513 | 17.78° C | 79% | 1013.5 hPa | 0 mm | - | 583 W/m² | - |
| 1777754210 | 17.78° C | 78% | 1013.3 hPa | 0 mm | - | 703 W/m² | - |
| 1777753908 | 17.78° C | 79% | 1013.5 hPa | 0 mm | - | 742 W/m² | - |
| 1777753602 | 17.78° C | 79% | 1013.5 hPa | 0 mm | - | 674 W/m² | - |
| 1777753301 | 17.78° C | 78% | 1013.3 hPa | 0 mm | - | 760 W/m² | - |
| 1777752997 | 17.78° C | 78% | 1013.5 hPa | 0 mm | - | 755 W/m² | - |
* Rain latest hour (hover to see other rain measurements)
** Current wind speed in m/s (hover to see current wind gust speed)